Hourly Data Report for October 24, 2015

All times are specified in Local Standard Time (LST). Add 1 hour to adjust for Daylight Saving Time where and when it is observed.

ARVIAT A
NUNAVUT

61°05'38.000" N
94°04'18.000" W
10.40 m
2300427
71174
YEK

Download Data

Hourly Data (October 2015)
Hourly Data Report for October 24, 2015
Temp Definition
°C
Dew Point Temp Definition
°C
Rel Hum Definition
%
Wind Dir Definition
10's deg

Wind Spd Definition
km/h
Visibility Definition
km
Stn Press Definition
kPa
Hmdx Definition


Wind Chill Definition


Weather Definition


TIME
00:00 Legend Double Dagger -9.4 -11.0 88 33 59 9.7 100.12   -22 Snow
01:00 Legend Double Dagger -11.0 -12.8 87 33 59 11.3 100.23   -24 Snow
02:00 Legend Double Dagger -11.4 -13.2 87 33 59 16.1 100.34   -24 LegendNANA
03:00 Legend Double Dagger -11.4 -13.0 88 34 52 16.1 100.48   -24 Snow
04:00 Legend Double Dagger -11.9 -13.5 88 35 52 16.1 100.62   -25 LegendNANA
05:00 Legend Double Dagger -12.1 -13.8 87 35 58 16.1 100.72   -25 LegendNANA
06:00 Legend Double Dagger -12.4 -14.4 85 35 54 16.1 100.89   -25 LegendNANA
07:00 Legend Double Dagger -13.5 -15.8 83 34 54 16.1 101.00   -27 LegendNANA
08:00 Legend Double Dagger -15.5 -17.3 86 33 48 16.1 101.13   -29 LegendNANA
09:00 Legend Double Dagger -16.0 -18.1 84 34 48 16.1 101.24   -30 LegendNANA
10:00 Legend Double Dagger -16.0 -18.3 83 34 45 16.1 101.35   -29 LegendNANA
11:00 Legend Double Dagger -16.1 -18.5 82 33 43 16.1 101.44   -29 LegendNANA
12:00 Legend Double Dagger -15.3 -17.7 82 33 43 16.1 101.55   -28 LegendNANA
13:00 Legend Double Dagger -14.6 -17.3 81 34 50 16.1 101.58   -28 LegendNANA
14:00 Legend Double Dagger -14.2 -16.8 81 33 41 16.1 101.64   -27 LegendNANA
15:00 Legend Double Dagger -13.8 -16.4 81 32 37 16.1 101.69   -25 LegendNANA
16:00 Legend Double Dagger -14.6 -16.9 83 32 39 16.1 101.71   -27 LegendNANA
17:00 Legend Double Dagger -15.4 -17.8 82 32 45 16.1 101.72   -29 LegendNANA
18:00 Legend Double Dagger -16.5 -18.6 84 31 35 16.1 101.75   -29 LegendNANA
19:00 Legend Double Dagger -17.3 -19.5 83 31 39 16.1 101.75   -30 LegendNANA
20:00 Legend Double Dagger -17.6 -19.8 83 31 37 16.1 101.75   -31 LegendNANA
21:00 Legend Double Dagger -17.5 -19.6 84 30 34 16.1 101.75   -30 LegendNANA
22:00 Legend Double Dagger -17.2 -19.3 84 30 39 16.1 101.70   -30 LegendNANA
23:00 Legend Double Dagger -16.9 -19.1 83 30 34 16.1 101.70   -29 LegendNANA

Notes on Data Quality.

Legend

  • E = Estimated
  • M = Missing
  • NA = Not Available
  • ‡ = Partner data that is not subject to review by the National Climate Archives
Date modified: